Regional Weather Roundup
Issued by NWS

Home | Current Version | Previous Version | Text Only | Print | Product List | Glossary Off
Versions: 1 2 3 4 5 6 7 8 9 10 11 12 13 14 15 16 17 18 19 20 21 22 23 24 25 26 27 28 29 30 31 32 33 34 35 36 37 38 39 40 41 42 43 44 45 46 47 48 49 50

000
ASUS43 KFSD 231002
RWRSD

WEATHER ROUNDUP FOR SOUTH DAKOTA
NATIONAL WEATHER SERVICE SIOUX FALLS SD
400 AM CST THU FEB 23 2017

NOTE: "FAIR" INDICATES FEW OR NO CLOUDS BELOW 12,000 FEET WITH NO
SIGNIFICANT WEATHER AND/OR OBSTRUCTIONS TO VISIBILITY.


SDZ001>005-009-010-012>017-231100-
NORTHWEST AND NORTH CENTRAL SOUTH DAKOTA

CITY           SKY/WX    TMP DP  RH WIND       PRES   REMARKS
BUFFALO          N/A     28  26  92 E9        29.86S WCI  19
FAITH            N/A     29  29 100 NE10      29.92F WCI  20
MOBRIDGE       CLOUDY    28  23  81 N5        29.95F WCI  23
$$

SDZ012>016-024>037-041>051-057-063-072>074-231100-
SOUTHWEST AND SOUTH CENTRAL SOUTH DAKOTA

CITY           SKY/WX    TMP DP  RH WIND       PRES   REMARKS
RAPID CTY ARPT LGT SNOW  29  28  96 NE10      29.87F FOG     WCI  20
PIERRE         CLOUDY    29  24  82 NE8       29.94F WCI  21
CUSTER         LGT SNOW  22  20  92 NE12      29.75F FOG     WCI  10
ELLSWORTH AFB  LGT SNOW  29  29 100 E8        29.87  FOG     WCI  22
PHILIP         CLOUDY    30  26  85 NE13      29.93F WCI  20
PINE RIDGE     LGT SNOW  30  29  96 NE13      29.80F FOG     WCI  20
SPEARFISH      CLOUDY    27  27 100 E8        29.86F FOG     WCI  18
WINNER         CLOUDY    31  27  85 NE13      29.89F WCI  21
$$

SDZ004>011-016>023-039-040-231100-
NORTHEAST SOUTH DAKOTA

CITY           SKY/WX    TMP DP  RH WIND       PRES   REMARKS
ABERDEEN       PTCLDY    26  22  84 N7        29.98R WCI  18
WATERTOWN      PTCLDY    27  24  89 N13       29.93R WCI  16
BROOKINGS      CLOUDY    29  26  89 NE15      29.88R WCI  18
SISSETON         N/A     28  26  92 N12       29.97R WCI  18
$$

SDZ017-020-022-023-036>040-048>070-231100-
SOUTHEAST SOUTH DAKOTA

CITY           SKY/WX    TMP DP  RH WIND       PRES   REMARKS
SIOUX FALLS    CLOUDY    32  29  88 N12       29.89R WCI  23
HURON          CLOUDY    29  26  89 N12       29.94F WCI  19
CHAMBERLAIN    CLOUDY    32  27  80 N12       29.91F WCI  23
MITCHELL       CLOUDY    31  27  85 N12       29.93F WCI  22
YANKTON        CLOUDY    34  28  80 N15G22    29.85F WCI  24
$$

ABBREVIATIONS USED IN REMARKS
   TC - TEMPERATURE IN CELSIUS
  WCI - WIND CHILL INDEX
   HX - HEAT INDEX
  VSB - VISIBILITY





USA.gov is the U.S. government's official web portal to all federal, state and local government web resources and services.